N750XC KLAX-KASE

Flight info

Callsign N750XC
Flight time N/A
Altitude 45000
Route ORCKA5 LAS J146 DICEE SLIPY LOYYD1
Aircraft C750/M-SBDE3FGHRWXY/S

Departure

Time 2026-05-06 23:12
Airport Los Angeles International Airport (KLAX)

Arrival

Time N/A
Airport Aspen-Pitkin County Airport (Sardy Field) (KASE)
Time Latitude Longitude Altitude Speed Heading
2026-05-06 22:57 33.93393 -118.39568 91 ft 0 kts 225°
2026-05-06 23:04 33.93406 -118.39552 80 ft 4 kts 220°
2026-05-06 23:04 33.93428 -118.39538 90 ft 4 kts 174°
2026-05-06 23:04 33.93432 -118.39539 92 ft 0 kts 170°
2026-05-06 23:07 33.93433 -118.39539 92 ft 0 kts 170°
2026-05-06 23:07 33.93415 -118.39505 91 ft 11 kts 73°
2026-05-06 23:07 33.93431 -118.39393 90 ft 14 kts 65°
2026-05-06 23:08 33.93493 -118.39381 90 ft 10 kts 33°
2026-05-06 23:08 33.93510 -118.39281 91 ft 18 kts 84°
2026-05-06 23:08 33.93529 -118.39099 90 ft 22 kts 83°
2026-05-06 23:08 33.93547 -118.38919 90 ft 21 kts 83°
2026-05-06 23:09 33.93564 -118.38749 89 ft 20 kts 83°
2026-05-06 23:09 33.93581 -118.38589 93 ft 18 kts 83°
2026-05-06 23:09 33.93596 -118.38441 91 ft 17 kts 83°
2026-05-06 23:09 33.93613 -118.38309 91 ft 13 kts 67°
2026-05-06 23:10 33.93645 -118.38280 95 ft 0 kts 13°
2026-05-06 23:10 33.93673 -118.38280 94 ft 5 kts 352°
2026-05-06 23:11 33.93727 -118.38317 94 ft 13 kts 295°
2026-05-06 23:11 33.93725 -118.38387 93 ft 0 kts 263°
2026-05-06 23:12 33.93708 -118.38553 93 ft 61 kts 263°
2026-05-06 23:12 33.93625 -118.39441 197 ft 131 kts 264°
2026-05-06 23:12 33.93541 -118.40613 788 ft 146 kts 266°
2026-05-06 23:13 33.93417 -118.41907 1409 ft 168 kts 262°
2026-05-06 23:13 33.93224 -118.43383 1940 ft 195 kts 262°
2026-05-06 23:13 33.93032 -118.45120 2579 ft 223 kts 263°
2026-05-06 23:13 33.92543 -118.47018 3114 ft 253 kts 248°
2026-05-06 23:14 33.91809 -118.49040 3925 ft 267 kts 248°
2026-05-06 23:14 33.91039 -118.51140 4818 ft 283 kts 247°
2026-05-06 23:14 33.90195 -118.53442 4999 ft 316 kts 247°
2026-05-06 23:14 33.89251 -118.55714 5030 ft 299 kts 236°
2026-05-06 23:15 33.87644 -118.57171 5382 ft 286 kts 203°
2026-05-06 23:15 33.85687 -118.57581 5516 ft 296 kts 175°
2026-05-06 23:15 33.83763 -118.56892 6558 ft 283 kts 150°
2026-05-06 23:15 33.82324 -118.55340 7525 ft 278 kts 122°
2026-05-06 23:16 33.81582 -118.53237 8588 ft 273 kts 97°
2026-05-06 23:16 33.81632 -118.51023 9634 ft 269 kts 75°
2026-05-06 23:16 33.82438 -118.48970 10402 ft 276 kts 53°
2026-05-06 23:16 33.83988 -118.47454 10561 ft 304 kts 28°
2026-05-06 23:17 33.86032 -118.46540 10680 ft 330 kts 19°
2026-05-06 23:17 33.88280 -118.45723 11378 ft 334 kts 18°
2026-05-06 23:17 33.90472 -118.44887 12097 ft 337 kts 20°
2026-05-06 23:17 33.92570 -118.43606 12672 ft 342 kts 36°
2026-05-06 23:18 33.94259 -118.41594 13399 ft 345 kts 52°
2026-05-06 23:18 33.95624 -118.39190 14049 ft 349 kts 55°
2026-05-06 23:18 33.96982 -118.36755 14705 ft 351 kts 55°
2026-05-06 23:18 33.98373 -118.34316 15350 ft 354 kts 54°
2026-05-06 23:19 33.99775 -118.31861 15980 ft 358 kts 54°
2026-05-06 23:19 34.01184 -118.29367 16620 ft 361 kts 54°
2026-05-06 23:19 34.02604 -118.26852 17290 ft 365 kts 54°
2026-05-06 23:19 34.04044 -118.24318 17956 ft 368 kts 54°
2026-05-06 23:20 34.05498 -118.21757 18602 ft 372 kts 54°
2026-05-06 23:20 34.06964 -118.19166 19232 ft 376 kts 54°
2026-05-06 23:20 34.08441 -118.16551 19859 ft 379 kts 54°
2026-05-06 23:20 34.09936 -118.13908 20513 ft 382 kts 54°
2026-05-06 23:21 34.11440 -118.11247 21167 ft 386 kts 54°
2026-05-06 23:21 34.12961 -118.08554 21816 ft 389 kts 54°
2026-05-06 23:21 34.14487 -118.05846 22509 ft 392 kts 54°
2026-05-06 23:21 34.16019 -118.03125 23258 ft 393 kts 54°
2026-05-06 23:22 34.17566 -118.00379 23809 ft 398 kts 54°
2026-05-06 23:22 34.19130 -117.97597 24353 ft 398 kts 54°
2026-05-06 23:22 34.20668 -117.94865 24858 ft 402 kts 54°
2026-05-06 23:22 34.22245 -117.92057 25426 ft 403 kts 54°
2026-05-06 23:23 34.23825 -117.89238 25904 ft 408 kts 54°
2026-05-06 23:23 34.25422 -117.86393 26466 ft 409 kts 54°
2026-05-06 23:23 34.27032 -117.83527 26916 ft 413 kts 54°
2026-05-06 23:23 34.28651 -117.80631 27459 ft 415 kts 54°
2026-05-06 23:24 34.30274 -117.77722 27924 ft 419 kts 54°
2026-05-06 23:24 34.31913 -117.74794 28404 ft 422 kts 54°
2026-05-06 23:24 34.33564 -117.71843 28946 ft 424 kts 54°
2026-05-06 23:24 34.35233 -117.68877 29413 ft 427 kts 53°
2026-05-06 23:25 34.36959 -117.65991 29905 ft 430 kts 52°
2026-05-06 23:25 34.38723 -117.63057 30355 ft 432 kts 53°
2026-05-06 23:25 34.40489 -117.60097 30777 ft 435 kts 53°
2026-05-06 23:25 34.42259 -117.57120 31273 ft 435 kts 53°
2026-05-06 23:26 34.44020 -117.54164 31934 ft 431 kts 52°
2026-05-06 23:26 34.45778 -117.51218 32632 ft 429 kts 52°
2026-05-06 23:26 34.47521 -117.48291 33264 ft 427 kts 52°
2026-05-06 23:26 34.49248 -117.45386 33995 ft 423 kts 52°
2026-05-06 23:27 34.50591 -117.43123 34497 ft 421 kts 52°
2026-05-06 23:27 34.52290 -117.40234 35023 ft 420 kts 53°
2026-05-06 23:27 34.53996 -117.37353 35540 ft 419 kts 52°
2026-05-06 23:27 34.55707 -117.34497 36079 ft 418 kts 52°
2026-05-06 23:28 34.57411 -117.31636 36616 ft 417 kts 52°
2026-05-06 23:28 34.59097 -117.28779 37161 ft 416 kts 53°
2026-05-06 23:28 34.60782 -117.25926 37712 ft 415 kts 53°
2026-05-06 23:28 34.62445 -117.23117 38258 ft 414 kts 52°
2026-05-06 23:29 34.64144 -117.20244 38792 ft 413 kts 53°
2026-05-06 23:29 34.65800 -117.17436 39116 ft 414 kts 52°
2026-05-06 23:29 34.67477 -117.14591 39499 ft 415 kts 52°
2026-05-06 23:29 34.69164 -117.11729 39839 ft 417 kts 52°
2026-05-06 23:30 34.70858 -117.08852 40196 ft 419 kts 52°
2026-05-06 23:30 34.72560 -117.05959 40570 ft 421 kts 52°
2026-05-06 23:30 34.74264 -117.03059 40923 ft 423 kts 52°
2026-05-06 23:30 34.75977 -117.00142 41274 ft 425 kts 52°
2026-05-06 23:31 34.77697 -116.97212 41624 ft 426 kts 52°
2026-05-06 23:31 34.79423 -116.94267 41963 ft 428 kts 52°
2026-05-06 23:31 34.81157 -116.91307 42315 ft 430 kts 52°
2026-05-06 23:31 34.82895 -116.88337 42656 ft 431 kts 52°
2026-05-06 23:32 34.84639 -116.85356 43033 ft 433 kts 52°
2026-05-06 23:32 34.86389 -116.82363 43295 ft 436 kts 52°
2026-05-06 23:32 34.88148 -116.79349 43618 ft 437 kts 52°
2026-05-06 23:32 34.89912 -116.76324 43933 ft 439 kts 52°
2026-05-06 23:33 34.91689 -116.73299 44237 ft 439 kts 50°
2026-05-06 23:33 34.93690 -116.70488 44515 ft 439 kts 44°
2026-05-06 23:33 34.95787 -116.67779 44808 ft 440 kts 44°
2026-05-06 23:33 34.97890 -116.65043 44910 ft 445 kts 45°
2026-05-06 23:34 35.00001 -116.62242 44906 ft 452 kts 45°
2026-05-06 23:34 35.04330 -116.56521 44905 ft 466 kts 45°
2026-05-06 23:35 35.08769 -116.50672 44883 ft 478 kts 45°
2026-05-06 23:35 35.13327 -116.44631 44874 ft 488 kts 45°
2026-05-06 23:36 35.17963 -116.38494 44901 ft 494 kts 45°
2026-05-06 23:36 35.22620 -116.32307 44898 ft 496 kts 45°
2026-05-06 23:37 35.27308 -116.26075 44888 ft 499 kts 45°
2026-05-06 23:37 35.32016 -116.19799 44885 ft 501 kts 45°
2026-05-06 23:38 35.36738 -116.13496 44902 ft 503 kts 45°
2026-05-06 23:38 35.41472 -116.07164 44895 ft 504 kts 45°
2026-05-06 23:39 35.46206 -116.00821 44915 ft 504 kts 45°
2026-05-06 23:39 35.50943 -115.94461 44915 ft 505 kts 45°